Aeroporto :
LOGIN :

Iscrizione | Disclaimer

   EN    FR    IT 

 










Sommario :    VFR   VFR Marginale   IFR   IFR Intensivo   IFR Molto Intensivo
Visibilità : 
Base nubi : 
>= 8 km
>= 3000ft
5 / 8 km
1000 / 3000 ft
1500m / 5 km
500 / 1000 ft
800 / 1500m
200 / 500 ft
< 800m
< 200 ft
Simboli :   Temporali  Nebbia  Neve Forte  Precipitazioni Forti  Vento > 20 kt
SIGMETs :   Varie  Temporali  Ghiacco  Turbolenza  Onda orograficha  Ceneri Vulcaniche







- Altitudine del aeroporto : 640 ft
- Codice IATA : AOC


EDAC - Altenburg-Nobitz

ULTIMO METAR :
  • 240950Z 24015KT 220V280 9999 FEW036 BKN280 17/09 Q1016

METARs OBSOLETI :
  • 240920Z 24017KT 9999 FEW035 BKN280 16/09 Q1016
  • 240850Z 24016KT 9999 FEW030 BKN280 16/09 Q1016
  • 240820Z 23014KT 200V260 CAVOK 15/10 Q1016
  • 240750Z 24013G24KT CAVOK 15/09 Q1016
  • 240720Z 23010KT CAVOK 15/10 Q1016

TAF TAF EDAC
Valido dal 24 a 09 ore il 24 a 18 ore UTC


240800Z 2409/2418 26012KT CAVOK
TEMPO 2409/2415 26015G25KT
BECMG 2415/2417 27006KT
Nessun NOTAM noto per questo aeroporto.



MetMap, La meteo Aeronautica in un colpo d'occhio ! - Copyright ORBIFLY Dicembre 2007 - Disclaimer

ORBIFLY MET'MAP TEAM :

Programmazione e sviluppo : Alexandra Zaïnal
Concezione e sviluppo : Baudouin d'Aumeries
Co-Programmazione e sviluppo : Marc-Olivier Méhu
Supporto tecnico e logistico : Manuel Goepfert
Aiuto per la traduzione : Arnaldo La Scala

Contatto : metmap@orbifly.com




FONTI E CREDITI :

   NOAA